Regional Weather Roundup
Issued by NWS Jackson, KY

Home | Current Version | Previous Version | Graphics & Text | Print | Product List | Glossary On
Versions: 1 2 3 4 5 6 7 8 9 10 11 12 13 14 15 16 17 18 19 20 21 22 23 24 25 26 27
000
ASUS43 KJKL 301110
RWRJKL

EAST KENTUCKY HOURLY WEATHER ROUNDUP
NATIONAL WEATHER SERVICE JACKSON KY
700 AM EDT SUN APR 30 2017

NOTE: "FAIR" INDICATES FEW OR NO CLOUDS BELOW 12,000 FEET WITH
NO SIGNIFICANT WEATHER AND/OR OBSTRUCTIONS TO VISIBILITY.

* THESE REPORTS ARE NOT UNDER NWS QUALITY CONTROL AND MAY NOT
  REPORT WEATHER SUCH AS PRECIPITATION AND FOG.

KYZ079-080-083-085-087-088-110-112-115-119-120-301200
...EASTERN KENTUCKY...

CITY           SKY/WX    TMP DP  RH WIND       PRES   REMARKS
JACKSON        CLEAR     70  62  76 SE6       30.01F
LONDON         CLOUDY    73  61  65 S8        29.99F
SOMERSET*      CLEAR     72  63  73 S7        29.96F
MONTICELLO*    MOCLDY    71  65  81 VRB7      29.97F
WILLIAMSBURG*  CLOUDY    70  64  83 SE7       29.99S
MIDDLESBORO*   MOCLDY    61  61 100 CALM      30.03S
HARLAN APT*    SUNNY     68  61  77 CALM      30.04F
PIKE CO APT*     N/A     69  64  84 S3        30.04S
MOREHEAD APT*  SUNNY     72  61  68 SE3       30.01R
$$

KYZ035-036-041-042-044-050-067-078-099-301200
...CENTRAL KENTUCKY...

CITY           SKY/WX    TMP DP  RH WIND       PRES   REMARKS
MT STERLING*   CLEAR     68  63  83 SE5       29.99S
FLEMING/MASON* CLEAR     69  63  79 S9        29.99R
DANVILLE*      MOCLDY    70  64  83 S8        29.95F
LEXINGTON      CLEAR     72  64  76 S10       29.94F
FRANKFORT      CLOUDY    71  63  75 SE8       29.91F
LOUISVILLE     CLOUDY    72  65  78 S7        29.87F
LEBANON*         N/A     72  64  78 S13G18    29.92R
GLASGOW*       CLOUDY    70  64  79 S5        29.91R
BOWLING GREEN  CLOUDY    74  66  76 S9        29.91R
$$

KYZ091>093-OHZ055-061-077-WVZ005-015-034-035-042-301200
...SOUTHERN OHIO/WEST VIRGINIA...

CITY           SKY/WX    TMP DP  RH WIND       PRES   REMARKS
COVINGTON      CLOUDY    68  63  84 S6        29.91F
COLUMBUS       FOG       59  59 100 E6        29.97F VSB 1/2
DAYTON         FOG       57  57 100 SE7       29.95R VSB<1/4
WILMINGTON     PTCLDY    59  59 100 E3        29.96R FOG
HUNTINGTON     PTCLDY    69  63  81 S3        30.00S
CHARLESTON     PTCLDY    64  62  93 SE3       30.03R
PINEVILLE*     FOG       59  58  98 MISG      30.15S VSB 1
BECKLEY        CLEAR     66  60  81 SE8       30.14R
BLUEFIELD      CLEAR     65  59  81 SE6       30.17R
LOGAN CO APT*    N/A     70  61  73 VRB5      30.07R
$$

VAZ002-007-008-TNZ017-027-036-066-071-301200
...SOUTHWEST VIRGINIA/EAST TENNESSEE...

CITY           SKY/WX    TMP DP  RH WIND       PRES   REMARKS
WISE*          CLEAR     68  59  73 S8        30.12S
JONESVILLE*      N/A     64  63  94 CALM      30.07S FOG
ABINGDON*      CLEAR     64  61  91 E5        30.12R
BRISTOL        PTCLDY    62  60  93 N5        30.08S
MORRISTOWN*    SUNNY     66  63  88 CALM      30.03S
SEVIERVILLE*   SUNNY     63  57  82 CALM      30.02S
KNOXVILLE      CLOUDY    71  60  68 SW7       30.00S
LAFOLLETTE*    PTSUNNY   70  64  83 CALM      30.04S
OAK RIDGE      MOCLDY    72  63  73 CALM      30.02F
CROSSVILLE     CLOUDY    68  63  84 S12G18    29.99F
NASHVILLE      CLOUDY    73  65  75 SW5       29.92R
$$

...KEY TO REMARKS...
VSB - VISIBILITY IN MILES
WCI - WIND CHILL INDEX
HX  - HEAT INDEX

$$




USA.gov is the U.S. government's official web portal to all federal, state and local government web resources and services.